Tracking 31033 objects as of 15-Jul-2025
HD Live streaming from Space Station
objects crossing your sky now

DELTA 1 DEB

Track DELTA 1 DEB now!
10-day predictions


NORAD ID: 21355
Int'l Code: 1975-052BZ
Perigee: 1,099.7 km
Apogee: 1,328.7 km
Inclination: 99.6 °
Period: 109.6 minutes
Semi major axis: 7585 km
RCS: 0.0166 m2 (small)
Launch date: June 12, 1975
Source: United States (US)
Launch site: AIR FORCE WESTERN TEST RANGE (AFWTR)

Note: This is SATELLITE DEBRIS
Your satellite tracking list
Your tracking list is empty




NASA's NSSDC Master Catalog

Two Line Element Set (TLE):
1 21355U 75052BZ  25195.55200181 -.00000021  00000-0  42045-4 0  9992
2 21355  99.6030 194.4299 0150926  76.0742  43.1134 13.14167046637782
Source of the keplerian elements: AFSPC